Simultaneous Nadir Overpasses (SNOs) Predictions

Prediction of SNOs between LANDSAT-8 and METOP-A Satellite Orbit:

Table of predicted SNOs for the next 14.0 days since TLE Epoch: 1/7/2017
Index Date (LANDSAT-8) Time (LANDSAT-8) Lat,Lon (LANDSAT-8) SZA (LANDSAT-8 ) Date (METOP-A) Time (METOP-A) Lat,Lon (METOP-A) SZA (METOP-A ) Distance(km) Time Diff (sec)
1 01/08/2017 13:17:42 -81.13,-159.61 74.96 01/08/2017 13:16:34 -81.12,-159.79 75.00 3.25 68
2 01/08/2017 14:07:08 81.13, 8.12 105.06 01/08/2017 14:07:13 81.14, 8.10 105.06 0.55 5
3 01/11/2017 08:51:57 -81.12, -93.30 75.42 01/11/2017 08:50:55 -81.12, -93.36 75.44 1.05 62
4 01/11/2017 09:41:22 81.15, 74.77 104.64 01/11/2017 09:41:33 81.15, 74.91 104.67 2.41 11
5 01/14/2017 04:26:11 -81.13, -26.66 75.88 01/14/2017 04:25:15 -81.12, -26.76 75.92 1.85 56
6 01/14/2017 05:15:36 81.16, 141.39 104.17 01/14/2017 05:15:53 81.16, 141.52 104.19 2.16 17
7 01/17/2017 00:00:25 -81.12, 39.59 76.46 01/16/2017 23:59:34 -81.12, 39.65 76.47 1.16 51
8 01/17/2017 00:49:50 81.14,-152.39 103.59 01/17/2017 00:50:13 81.14,-152.46 103.60 1.21 23
9 01/19/2017 19:34:39 -81.13, 106.17 77.04 01/19/2017 19:33:53 -81.13, 106.23 77.05 1.07 46




NCC Satellite Simultaneous Nadir Overpasses (SNOs) Prediction Service
